Flag for France Weather past 2 weeks in Chalon-sur-Saône, France

Now
48 °F

Clear.


Feels Like: 48 °F
Forecast: 41 / 65 °F
Wind: 2 mph from Southeast

Location: Dole Tavaux

Current Time: Oct 24, 2014 at 11:31:33 PM

Latest Report: Oct 24, 2014 at 11:00 PM


Visibility: N/A

Pressure: 30.09 "Hg

Humidity: 87%

Dew point: 45 °F

Location of Chalon-sur-SaôneLocation

Historic Weather in Chalon-sur-Saône — Graph

°F

Chalon-sur-Saône temperature yesterday

Maximum temperature yesterday: 54 °F (at 2:00 PM)
Minimum temperature yesterday: 41 °F (at 4:30 AM)
Average temperature yesterday: 47 °F

Past Weeks' High & Low Weather Summary

 TemperatureHumidityPressure
High75 °F (Oct 18, 3:30 PM)100% (Oct 10, 12:00 AM)30.33 "Hg (Oct 10, 12:00 AM)
Low36 °F (Oct 24, 8:30 AM)54% (Oct 22, 1:00 PM)29.71 "Hg (Oct 12, 5:30 PM)
Average57 °F87%30.01 "Hg
* Reported Oct 9 10:00 PM — Oct 24 10:00 PM, Chalon-sur-Saône, Weather by CustomWeather, © 2014

Note: Actual official high and low records may vary slightly from our data, if they occured in-between our weather recording intervals... More about our weather records

Advertising

Chalon-sur-Saône weather history for previous 24 hours

 ConditionsComfort  
Time TempWeatherWind HumidityBarometerVisibility
10:00 PM
Oct 24
48 °FClear.2 mph94%30.09 "HgN/A
9:30 PM48 °FClear.2 mph94%30.09 "HgN/A
9:00 PM48 °FClear.1 mph87%30.09 "HgN/A
8:30 PM50 °FClear.2 mph82%30.09 "HgN/A
8:00 PM50 °FClear.2 mph88%30.09 "HgN/A
7:30 PM50 °FClear.3 mph88%30.12 "HgN/A
7:00 PM50 °FClear.5 mph88%30.09 "HgN/A
6:30 PM52 °FClear.3 mph82%30.09 "HgN/A
6:00 PM52 °FClear.6 mph82%30.09 "HgN/A
5:30 PM54 °FClear.6 mph77%30.09 "HgN/A
5:00 PM54 °FClear.5 mph77%30.09 "HgN/A
4:30 PM54 °FClear.5 mph77%30.09 "HgN/A
4:00 PM54 °FClear.6 mph77%30.09 "HgN/A
3:30 PM54 °FClear.6 mph77%30.12 "HgN/A
3:00 PM54 °FClear.5 mph77%30.12 "HgN/A
2:30 PM52 °FClear.6 mph77%30.12 "HgN/A
2:00 PM52 °FClear.6 mph77%30.12 "HgN/A
1:30 PM50 °FPassing clouds.7 mph82%30.15 "HgN/A
1:00 PM50 °FClear.5 mph82%30.15 "HgN/A
12:30 PM50 °FPassing clouds.5 mph76%30.15 "HgN/A
12:00 PM48 °FPassing clouds.3 mph82%30.15 "HgN/A
11:30 AM48 °FPassing clouds.2 mph82%30.18 "HgN/A
11:00 AM46 °FPassing clouds.2 mph82%30.18 "HgN/A
10:30 AM45 °FPassing clouds.5 mph81%30.15 "HgN/A
10:00 AM45 °FPassing clouds.1 mph87%30.18 "Hg4 mi
9:30 AM41 °FPassing clouds.1 mph100%30.18 "HgN/A
9:00 AM39 °FFog.3 mph93%30.15 "Hg3 mi
8:30 AM36 °FFog.2 mph100%30.18 "Hg3 mi
8:00 AM37 °FClear.2 mph100%30.18 "Hg4 mi
7:30 AM37 °FFog.3 mph93%30.18 "Hg2 mi
7:00 AM37 °FFog.2 mph100%30.18 "Hg3 mi
6:30 AM39 °FClear.3 mph100%30.18 "Hg6 mi
6:00 AM39 °FClear.6 mph100%30.18 "Hg5 mi
5:30 AM41 °FClear.7 mph93%30.18 "Hg6 mi
4:30 AM39 °FClear.2 mph100%30.18 "Hg5 mi
4:00 AM39 °FClear.6 mph93%30.18 "Hg4 mi
3:30 AM39 °FClear.3 mph93%30.18 "Hg4 mi
3:00 AM41 °FClear.2 mph100%30.18 "Hg5 mi
2:30 AM43 °FClear.7 mph93%30.18 "HgN/A
2:00 AM45 °FClear.7 mph87%30.18 "HgN/A
1:30 AM45 °FClear.8 mph87%30.21 "HgN/A
1:00 AM45 °FClear.6 mph87%30.21 "HgN/A
12:30 AM43 °FClear.6 mph93%30.21 "HgN/A
12:00 AM43 °FClear.6 mph93%30.21 "HgN/A
11:30 PM
Oct 23
43 °FClear.3 mph93%30.24 "HgN/A
11:00 PM43 °FClear.3 mph100%30.24 "Hg5 mi
Weather by CustomWeather, © 2014

See weather overviewHow to use our weather pages